QPF
0.01 0.02 0.02 0.02 0.04 0.02 0.03 0.03 0.00 0.00 0.00 0.00 0.00 0.00 0.00 0.00 0.01 0.01 0.06 0.09 0.15 0.10 0.02 0.04 0.10 0.05 0.02 0.08 0.16 0.10 0.04 0.02 0.05 0.06 0.01 0.03 0.05 0.02 0.00 0.00 0.00 0.00 0.00
0.01 0.00 0.01 0.00 0.00 0.00 0.00 0.00 0.00 0.00 0.00 0.00 0.00 0.00 0.00 0.00 0.01 0.02 0.01 0.08 0.13 0.15 0.06 0.14 0.01 0.04 0.04 0.03 0.06 0.09 0.03 0.02 0.00 0.00 0.01 0.02 0.01 0.00 0.00 0.00 0.00 0.00 0.00
0.00 0.00 0.00 0.00 0.00 0.00 0.00 0.00 0.00 0.00 0.00 0.00 0.00 0.00 0.00 0.00 0.00 0.00 0.00 0.01 0.06 0.16 0.10 0.19 0.10 0.22 0.12 0.02 0.18 0.27 0.02 0.02 0.03 0.01 0.00 0.00 0.01 0.04 0.02 0.00 0.00 0.00 0.00
0.00 0.00 0.00 0.00 0.00 0.00 0.00 0.00 0.00 0.00 0.00 0.00 0.00 0.00 0.00 0.00 0.00 0.00 0.00 0.00 0.01 0.05 0.17 0.19 0.21 0.47 0.42 0.35 0.22 0.18 0.31 0.28 0.15 0.07 0.02 0.00 0.00 0.01 0.00 0.00 0.00 0.00 0.00
0.00 0.00 0.00 0.00 0.00 0.00 0.00 0.00 0.00 0.00 0.00 0.00 0.00 0.00 0.00 0.00 0.00 0.00 0.00 0.00 0.00 0.00 0.02 0.06 0.12 0.10 0.37 0.61 0.77 0.20 0.12 0.23 0.27 0.23 0.17 0.11 0.01 0.00 0.00 0.00 0.00 0.02 0.00
0.00 0.00 0.00 0.00 0.00 0.00 0.00 0.00 0.00 0.00 0.00 0.00 0.00 0.00 0.00 0.00 0.00 0.00 0.00 0.00 0.00 0.00 0.00 0.00 0.03 0.09 0.06 0.11 0.16 0.19 0.23 0.11 0.07 0.09 0.06 0.10 0.00 0.00 0.02 0.01 0.02 0.04 0.02
0.00 0.00 0.00 0.00 0.00 0.00 0.00 0.00 0.00 0.00 0.00 0.00 0.00 0.00 0.00 0.00 0.00 0.00 0.00 0.00 0.00 0.00 0.00 0.00 0.00 0.00 0.00 0.01 0.00 0.00 0.07 0.07 0.06 0.08 0.00 0.00 0.00 0.03 0.11 0.22 0.19 0.16 0.03
0.00 0.00 0.00 0.00 0.00 0.00 0.00 0.00 0.00 0.00 0.00 0.00 0.00 0.00 0.00 0.00 0.00 0.00 0.00 0.00 0.00 0.00 0.00 0.00 0.00 0.00 0.00 0.00 0.00 0.00 0.00 0.00 0.02 0.05 0.02 0.00 0.00 0.01 0.08 0.07 0.11 0.16 0.12
0.00 0.00 0.00 0.00 0.00 0.00 0.00 0.00 0.00 0.00 0.00 0.00 0.00 0.00 0.00 0.00 0.00 0.00 0.00 0.00 0.00 0.00 0.00 0.00 0.00 0.00 0.00 0.00 0.00 0.00 0.00 0.00 0.03 0.09 0.17 0.08 0.01 0.00 0.04 0.16 0.08 0.10 0.06
0.00 0.00 0.00 0.00 0.00 0.00 0.00 0.00 0.00 0.00 0.00 0.00 0.00 0.00 0.00 0.01 0.00 0.00 0.00 0.00 0.00 0.00 0.00 0.00 0.00 0.00 0.00 0.00 0.00 0.00 0.00 0.00 0.00 0.01 0.03 0.02 0.01 0.00 0.00 0.02 0.02 0.04 0.02
0.00 0.00 0.00 0.00 0.00 0.00 0.00 0.00 0.00 0.00 0.00 0.00 0.00 0.00 0.00 0.00 0.00 0.00 0.00 0.00 0.00 0.00 0.00 0.00 0.00 0.00 0.00 0.00 0.00 0.00 0.00 0.00 0.00 0.00 0.00 0.00 0.00 0.00 0.00 0.00 0.00 0.01 0.00
0.00 0.00 0.00 0.00 0.00 0.00 0.00 0.00 0.00 0.00 0.00 0.00 0.00 0.00 0.00 0.01 0.01 0.01 0.00 0.00 0.00 0.00 0.00 0.00 0.00 0.00 0.00 0.00 0.00 0.00 0.00 0.00 0.00 0.00 0.00 0.00 0.00 0.00 0.00 0.02 0.03 0.02 0.01
0.00 0.00 0.00 0.00 0.00 0.00 0.00 0.00 0.00 0.00 0.00 0.00 0.00 0.00 0.00 0.00 0.01 0.00 0.00 0.00 0.00 0.00 0.00 0.00 0.00 0.00 0.00 0.00 0.00 0.00 0.00 0.00 0.00 0.00 0.00 0.00 0.00 0.00 0.00 0.01 0.03 0.06 0.07
0.00 0.00 0.00 0.00 0.00 0.00 0.00 0.00 0.00 0.00 0.00 0.00 0.01 0.01 0.00 0.00 0.00 0.00 0.00 0.00 0.00 0.00 0.00 0.00 0.00 0.00 0.00 0.00 0.00 0.00 0.00 0.00 0.00 0.00 0.00 0.00 0.00 0.00 0.00 0.01 0.02 0.03 0.06
0.00 0.00 0.00 0.00 0.00 0.00 0.00 0.00 0.00 0.00 0.00 0.00 0.00 0.00 0.00 0.00 0.00 0.00 0.00 0.00 0.00 0.00 0.00 0.00 0.00 0.00 0.00 0.01 0.01 0.00 0.00 0.00 0.00 0.00 0.00 0.00 0.00 0.00 0.00 0.00 0.01 0.07 0.04
0.00 0.00 0.00 0.00 0.00 0.00 0.00 0.00 0.00 0.00 0.00 0.00 0.00 0.00 0.00 0.00 0.00 0.00 0.00 0.00 0.00 0.00 0.00 0.00 0.00 0.00 0.00 0.01 0.02 0.03 0.02 0.00 0.00 0.00 0.00 0.00 0.00 0.00 0.00 0.03 0.05 0.07 0.08
0.00 0.00 0.00 0.00 0.00 0.00 0.00 0.00 0.00 0.00 0.00 0.00 0.00 0.00 0.00 0.00 0.00 0.00 0.00 0.00 0.00 0.00 0.00 0.00 0.00 0.00 0.00 0.00 0.00 0.02 0.01 0.01 0.06 0.05 0.01 0.00 0.00 0.00 0.00 0.01 0.05 0.11 0.10
0.00 0.00 0.00 0.00 0.00 0.00 0.00 0.00 0.00 0.00 0.00 0.00 0.00 0.00 0.00 0.00 0.00 0.00 0.00 0.00 0.00 0.00 0.00 0.00 0.00 0.00 0.00 0.00 0.00 0.00 0.00 0.00 0.01 0.03 0.03 0.00 0.00 0.00 0.00 0.00 0.00 0.03 0.07
0.00 0.00 0.00 0.00 0.00 0.00 0.00 0.00 0.00 0.01 0.01 0.00 0.00 0.00 0.00 0.00 0.00 0.00 0.00 0.00 0.00 0.00 0.00 0.00 0.00 0.00 0.00 0.00 0.00 0.00 0.00 0.00 0.00 0.01 0.02 0.01 0.00 0.00 0.00 0.00 0.00 0.01 0.05
0.00 0.00 0.00 0.00 0.00 0.00 0.00 0.01 0.01 0.01 0.01 0.01 0.00 0.00 0.00 0.01 0.00 0.00 0.00 0.00 0.00 0.00 0.00 0.00 0.00 0.00 0.00 0.00 0.00 0.00 0.00 0.00 0.00 0.00 0.01 0.01 0.01 0.03 0.00 0.00 0.00 0.00 0.01
0.00 0.00 0.00 0.00 0.00 0.00 0.00 0.00 0.00 0.00 0.00 0.00 0.00 0.00 0.01 0.01 0.00 0.00 0.00 0.00 0.00 0.01 0.01 0.01 0.00 0.00 0.00 0.00 0.00 0.00 0.00 0.00 0.01 0.01 0.01 0.00 0.01 0.02 0.01 0.00 0.00 0.01 0.03
0.00 0.00 0.00 0.00 0.00 0.00 0.01 0.01 0.00 0.01 0.01 0.01 0.00 0.00 0.01 0.00 0.01 0.02 0.02 0.01 0.01 0.00 0.01 0.02 0.03 0.02 0.02 0.01 0.01 0.01 0.00 0.00 0.01 0.02 0.02 0.02 0.01 0.00 0.03 0.03 0.03 0.04 0.05
0.00 0.00 0.00 0.00 0.00 0.01 0.01 0.01 0.01 0.01 0.01 0.00 0.00 0.00 0.00 0.01 0.02 0.02 0.02 0.02 0.03 0.03 0.02 0.03 0.05 0.04 0.02 0.01 0.01 0.02 0.02 0.00 0.00 0.01 0.02 0.01 0.01 0.00 0.01 0.03 0.04 0.04 0.02
0.00 0.00 0.00 0.00 0.01 0.02 0.02 0.03 0.01 0.02 0.02 0.00 0.00 0.00 0.01 0.01 0.01 0.01 0.00 0.00 0.01 0.03 0.05 0.08 0.10 0.07 0.04 0.03 0.04 0.02 0.01 0.01 0.01 0.00 0.00 0.03 0.06 0.05 0.04 0.07 0.06 0.04 0.03
0.00 0.00 0.00 0.00 0.01 0.03 0.02 0.02 0.01 0.01 0.01 0.01 0.01 0.00 0.00 0.00 0.00 0.00 0.00 0.00 0.03 0.07 0.07 0.10 0.14 0.14 0.11 0.10 0.14 0.13 0.08 0.04 0.03 0.05 0.04 0.08 0.16 0.15 0.09 0.05 0.02 0.01 0.01
0.00 0.00 0.00 0.01 0.02 0.03 0.02 0.02 0.02 0.02 0.02 0.03 0.01 0.00 0.01 0.03 0.02 0.01 0.00 0.00 0.01 0.10 0.09 0.05 0.06 0.11 0.12 0.07 0.03 0.02 0.03 0.01 0.00 0.03 0.11 0.11 0.08 0.06 0.05 0.03 0.05 0.03 0.02
MSLP
1010.85 1011.17 1011.45 1011.77 1012.21 1012.62 1013.16 1013.55 1013.69 1013.87 1013.95 1014.11 1014.12 1013.98 1014.01 1014.16 1014.08 1014.07 1014.18 1014.11 1014.26 1014.21 1013.94 1013.91 1014.11 1014.08 1014.21 1014.19 1014.12 1014.53 1015.08 1015.06 1015.31 1015.14 1014.75 1014.44 1014.22 1013.47 1012.56 1012.87 1012.68 1012.93 1013.11
1010.84 1011.17 1011.33 1011.62 1011.92 1012.25 1012.71 1013.38 1013.62 1013.80 1013.82 1013.78 1013.88 1013.97 1014.05 1014.00 1013.87 1013.89 1013.93 1013.78 1013.89 1013.66 1013.36 1013.44 1013.30 1013.39 1013.57 1013.28 1013.50 1013.57 1013.47 1014.06 1014.53 1014.62 1014.10 1013.77 1013.41 1012.81 1012.23 1012.33 1012.32 1012.10 1012.43
1011.13 1011.53 1011.53 1011.80 1012.33 1012.88 1013.14 1013.44 1013.72 1013.91 1013.93 1013.89 1013.84 1013.74 1013.69 1013.73 1013.70 1013.62 1013.54 1013.36 1013.26 1013.03 1012.93 1012.84 1012.40 1012.41 1012.54 1012.96 1013.38 1013.60 1013.17 1012.94 1013.60 1013.91 1013.57 1012.93 1012.70 1012.38 1012.56 1012.10 1012.02 1012.05 1011.85
1011.95 1012.21 1012.21 1012.25 1012.42 1012.59 1012.88 1013.34 1013.60 1013.76 1013.86 1013.93 1013.88 1013.84 1013.75 1013.60 1013.40 1013.19 1013.01 1012.84 1012.63 1012.55 1012.47 1012.33 1012.05 1011.84 1011.84 1012.18 1013.20 1013.22 1013.18 1013.00 1013.15 1013.53 1013.16 1012.77 1012.56 1012.14 1011.97 1012.20 1012.24 1011.91 1011.64
1012.49 1012.67 1012.65 1012.52 1012.60 1012.63 1012.86 1013.15 1013.34 1013.45 1013.50 1013.56 1013.56 1013.41 1013.23 1013.05 1012.79 1012.58 1012.58 1012.46 1012.36 1012.21 1012.00 1011.80 1011.51 1011.27 1011.49 1011.44 1012.15 1012.03 1012.51 1012.52 1012.91 1012.78 1012.94 1012.76 1012.21 1012.03 1011.88 1011.79 1012.00 1011.76 1011.38
1012.67 1012.96 1012.91 1012.77 1012.91 1012.90 1012.92 1013.06 1013.09 1013.12 1013.14 1013.16 1013.10 1012.96 1012.77 1012.48 1012.22 1012.01 1011.95 1012.04 1011.90 1011.86 1011.78 1011.37 1010.99 1010.67 1010.84 1010.97 1011.15 1011.17 1011.13 1011.20 1011.47 1011.74 1011.90 1011.81 1011.72 1011.45 1011.29 1011.42 1011.61 1011.94 1011.81
1012.81 1012.95 1012.87 1012.77 1012.80 1012.80 1012.77 1012.90 1012.94 1012.87 1012.75 1012.84 1012.75 1012.59 1012.36 1012.07 1011.76 1011.56 1011.43 1011.46 1011.46 1011.39 1011.28 1010.88 1010.41 1010.09 1009.98 1010.13 1010.21 1010.27 1010.29 1010.28 1010.19 1010.59 1010.97 1010.90 1010.96 1010.95 1010.99 1011.17 1011.40 1011.54 1011.39
1012.73 1012.76 1012.64 1012.62 1012.65 1012.58 1012.72 1012.95 1012.96 1012.85 1012.84 1012.74 1012.40 1012.05 1011.76 1011.42 1011.20 1011.03 1010.82 1010.74 1010.72 1010.57 1010.42 1010.16 1009.91 1009.62 1009.51 1009.46 1009.48 1009.60 1009.55 1009.42 1009.47 1009.88 1009.88 1009.82 1010.01 1010.17 1010.34 1010.40 1010.60 1010.52 1010.73
1012.90 1012.86 1012.76 1012.74 1012.76 1012.72 1012.78 1012.83 1012.75 1012.72 1012.64 1012.38 1012.02 1011.62 1011.22 1010.71 1010.41 1010.28 1010.20 1010.10 1009.91 1009.75 1009.52 1009.41 1009.31 1009.07 1008.84 1008.91 1009.01 1008.99 1009.02 1008.87 1008.64 1008.69 1008.56 1008.64 1008.85 1008.95 1009.26 1009.95 1010.21 1010.53 1010.34
1013.79 1013.62 1013.27 1013.04 1012.96 1012.83 1012.76 1012.66 1012.42 1012.26 1012.20 1011.88 1011.55 1011.18 1010.76 1010.32 1009.91 1009.58 1009.51 1009.54 1009.37 1009.08 1008.75 1008.72 1008.56 1008.37 1008.18 1008.13 1008.49 1008.56 1008.65 1008.44 1008.45 1008.42 1008.39 1008.43 1008.32 1008.26 1008.50 1008.99 1009.16 1009.65 1009.64
1014.22 1013.79 1013.52 1013.27 1013.09 1012.86 1012.75 1012.58 1012.34 1012.04 1011.72 1011.47 1011.07 1010.57 1010.18 1009.74 1009.18 1008.83 1008.70 1008.77 1008.68 1008.48 1008.29 1008.06 1007.74 1007.59 1007.59 1007.57 1007.58 1007.76 1007.68 1007.60 1007.88 1008.09 1008.21 1008.06 1007.81 1007.55 1007.65 1007.76 1007.95 1008.33 1008.37
1014.67 1014.32 1013.99 1013.61 1013.30 1012.95 1012.84 1012.58 1012.18 1011.75 1011.39 1010.98 1010.49 1009.99 1009.42 1009.02 1008.58 1008.28 1007.93 1007.93 1007.98 1008.21 1007.84 1007.31 1007.31 1007.34 1007.36 1007.25 1006.97 1006.96 1006.99 1007.14 1007.54 1007.73 1007.85 1007.66 1007.41 1007.20 1006.96 1007.04 1006.96 1006.83 1006.63
1015.02 1014.73 1014.34 1013.85 1013.38 1013.10 1012.92 1012.47 1012.04 1011.60 1011.04 1010.69 1010.28 1009.74 1009.23 1008.56 1008.26 1007.92 1007.75 1007.61 1007.52 1007.79 1007.64 1007.44 1007.24 1007.00 1006.85 1006.73 1006.65 1006.40 1006.52 1006.87 1007.11 1007.27 1007.13 1006.93 1006.67 1006.56 1006.48 1006.34 1006.15 1006.15 1006.04
1015.39 1015.01 1014.58 1014.14 1013.55 1013.25 1013.08 1012.70 1012.11 1011.54 1010.82 1010.34 1010.03 1009.56 1008.90 1008.33 1007.89 1007.56 1007.43 1007.32 1007.23 1007.11 1006.94 1006.89 1006.85 1006.65 1006.55 1006.31 1006.18 1005.98 1006.07 1006.18 1006.33 1006.27 1006.11 1005.90 1005.85 1005.94 1005.82 1005.54 1005.55 1005.47 1005.47
1015.39 1015.01 1014.60 1014.16 1013.62 1013.21 1012.79 1012.37 1011.96 1011.40 1010.96 1010.36 1009.62 1009.14 1008.71 1008.05 1007.54 1007.13 1007.04 1007.08 1006.91 1006.80 1006.67 1006.57 1006.46 1006.26 1006.04 1005.70 1005.50 1005.24 1005.11 1005.24 1005.39 1005.34 1005.40 1005.34 1005.31 1005.31 1004.97 1004.71 1004.76 1004.86 1004.92
1015.41 1014.94 1014.53 1014.06 1013.48 1012.89 1012.30 1011.46 1011.08 1010.75 1010.16 1009.69 1009.30 1008.94 1008.07 1007.52 1007.01 1006.60 1006.52 1006.49 1006.50 1006.57 1006.62 1006.31 1006.01 1005.69 1005.52 1005.11 1004.77 1004.46 1004.31 1004.20 1004.32 1004.54 1004.60 1004.53 1004.39 1004.41 1004.22 1004.07 1003.95 1003.94 1004.07
1015.39 1014.80 1014.29 1013.77 1013.14 1012.49 1011.89 1011.23 1010.34 1009.35 1009.34 1008.90 1008.60 1008.03 1007.46 1007.22 1006.56 1006.23 1006.02 1006.08 1006.12 1006.41 1006.32 1005.70 1005.09 1004.74 1004.50 1004.08 1003.72 1003.45 1003.19 1003.05 1003.06 1003.35 1003.64 1003.64 1003.47 1003.35 1003.44 1003.27 1003.23 1003.36 1003.30
1015.10 1014.60 1014.07 1013.32 1012.70 1012.09 1011.44 1010.77 1010.22 1009.49 1008.45 1007.87 1007.57 1007.36 1006.96 1006.43 1006.04 1005.72 1005.34 1005.44 1005.33 1005.51 1004.96 1004.20 1003.75 1003.42 1003.19 1002.96 1002.61 1002.21 1001.98 1001.87 1002.05 1002.28 1002.44 1002.57 1002.53 1002.42 1002.47 1002.41 1002.42 1002.63 1002.59
1014.73 1014.16 1013.56 1012.97 1012.41 1011.76 1011.02 1010.30 1009.68 1009.05 1008.40 1007.85 1007.26 1006.90 1006.50 1006.04 1005.59 1005.10 1004.77 1004.90 1004.41 1003.76 1003.21 1002.68 1002.43 1002.22 1001.98 1001.72 1001.42 1001.08 1000.84 1000.69 1000.71 1000.96 1001.22 1001.46 1001.40 1001.42 1001.35 1001.21 1001.33 1001.39 1001.50
1014.47 1013.79 1013.23 1012.64 1011.96 1011.29 1010.63 1010.16 1009.42 1009.00 1008.43 1007.93 1007.40 1006.82 1006.35 1005.98 1005.13 1004.68 1004.30 1003.93 1003.43 1002.75 1002.18 1001.73 1001.29 1000.97 1000.72 1000.45 1000.25 1000.10 1000.00 999.87 999.84 999.91 1000.03 1000.18 1000.26 1000.30 1000.18 1000.21 1000.36 1000.49 1000.65
1014.43 1013.84 1013.14 1012.53 1011.85 1011.31 1010.63 1009.92 1009.27 1008.49 1007.96 1007.44 1006.99 1006.56 1006.26 1005.60 1004.84 1004.24 1003.68 1002.99 1002.33 1001.60 1000.99 1000.51 1000.04 999.72 999.50 999.24 999.09 998.94 998.79 998.62 998.63 998.81 998.87 998.94 999.09 999.21 999.23 999.31 999.37 999.42 999.50
1014.36 1013.84 1013.23 1012.56 1011.87 1011.20 1010.54 1009.79 1009.07 1008.30 1007.49 1006.72 1006.34 1005.95 1005.43 1005.02 1004.42 1003.65 1002.79 1001.91 1000.89 1000.30 999.66 999.22 998.97 998.65 998.34 998.13 997.86 997.69 997.49 997.36 997.34 997.49 997.67 997.91 998.01 998.07 998.21 998.41 998.60 998.52 998.53
1014.17 1013.60 1012.98 1012.27 1011.62 1010.92 1010.20 1009.54 1008.77 1007.98 1007.15 1006.50 1006.00 1005.32 1004.75 1004.14 1003.40 1002.70 1001.92 1001.05 1000.31 999.81 999.17 998.50 997.73 997.28 997.05 996.77 996.49 996.51 996.40 996.05 995.92 996.06 996.25 996.57 996.81 997.00 997.21 997.47 997.74 997.87 997.97
1013.61 1013.24 1012.53 1011.78 1011.03 1010.32 1009.69 1009.08 1008.36 1007.59 1006.89 1006.17 1005.50 1004.76 1004.09 1003.52 1002.78 1002.14 1001.42 1000.67 1000.10 999.54 998.89 997.97 997.01 996.58 995.97 995.53 995.21 995.14 995.14 994.90 994.77 994.73 994.80 995.15 995.53 995.87 996.20 996.49 996.60 996.95 997.06
1013.22 1012.73 1012.03 1011.31 1010.50 1009.76 1009.01 1008.43 1007.83 1007.12 1006.36 1005.63 1004.85 1004.19 1003.52 1002.90 1002.34 1001.73 1000.89 1000.39 999.79 998.96 998.33 997.72 997.16 996.10 995.16 994.80 994.39 994.12 994.07 993.95 993.71 993.89 994.11 994.42 994.54 994.81 995.18 995.51 995.76 995.90 996.07
1012.92 1012.38 1011.67 1010.98 1010.11 1009.33 1008.52 1007.81 1007.20 1006.61 1005.91 1005.20 1004.44 1003.75 1003.05 1002.45 1001.89 1001.28 1000.59 999.91 999.20 998.52 997.83 997.17 996.31 995.45 994.76 994.04 993.43 993.10 993.00 993.14 993.19 993.18 993.23 993.41 993.79 993.96 994.16 994.47 994.98 995.14 995.31
Thickness
5812 5810 5806 5802 5798 5793 5787 5783 5781 5778 5777 5775 5773 5773 5773 5771 5771 5770 5767 5767 5764 5763 5765 5764 5762 5762 5759 5761 5763 5762 5757 5757 5751 5758 5767 5772 5775 5784 5792 5791 5796 5793 5794
5809 5806 5802 5800 5797 5792 5786 5778 5775 5773 5773 5772 5771 5769 5767 5767 5768 5766 5764 5766 5763 5764 5765 5763 5763 5763 5761 5765 5763 5765 5766 5761 5753 5751 5762 5768 5774 5786 5796 5794 5794 5795 5793
5798 5794 5793 5790 5786 5780 5777 5773 5769 5765 5764 5764 5765 5765 5765 5764 5763 5763 5763 5764 5764 5765 5765 5764 5765 5765 5762 5758 5755 5753 5761 5765 5760 5756 5758 5770 5775 5785 5784 5788 5789 5791 5793
5783 5779 5778 5778 5776 5773 5771 5766 5763 5759 5756 5755 5755 5756 5756 5757 5757 5758 5759 5761 5762 5762 5763 5763 5765 5766 5760 5752 5747 5750 5751 5750 5748 5748 5755 5762 5767 5774 5778 5776 5776 5783 5784
5769 5766 5764 5765 5764 5763 5760 5757 5754 5752 5750 5748 5747 5747 5749 5752 5754 5753 5753 5754 5756 5757 5759 5760 5762 5764 5758 5754 5743 5746 5750 5749 5744 5746 5746 5752 5761 5765 5769 5771 5770 5774 5782
5757 5751 5751 5751 5748 5747 5746 5743 5742 5740 5739 5739 5738 5738 5740 5744 5747 5747 5747 5747 5748 5749 5750 5753 5758 5761 5757 5752 5751 5753 5752 5751 5751 5751 5752 5751 5756 5761 5765 5766 5765 5763 5763
5746 5744 5742 5741 5739 5737 5735 5732 5730 5729 5731 5729 5728 5728 5729 5732 5736 5738 5739 5740 5741 5741 5742 5746 5750 5756 5757 5753 5752 5751 5753 5755 5758 5754 5751 5754 5754 5758 5761 5758 5758 5758 5763
5737 5735 5733 5731 5728 5726 5722 5719 5716 5715 5714 5715 5717 5719 5721 5725 5727 5728 5729 5731 5733 5736 5737 5739 5741 5744 5746 5748 5749 5749 5751 5754 5755 5753 5755 5757 5757 5758 5757 5759 5757 5756 5762
5721 5718 5718 5716 5713 5711 5708 5705 5704 5703 5701 5702 5704 5708 5711 5717 5719 5719 5719 5721 5724 5729 5731 5732 5732 5734 5737 5737 5739 5741 5744 5748 5753 5754 5756 5757 5757 5758 5757 5752 5751 5747 5751
5702 5701 5701 5701 5699 5697 5695 5693 5693 5692 5690 5691 5693 5695 5698 5703 5707 5710 5709 5709 5711 5717 5722 5724 5725 5728 5730 5730 5729 5731 5733 5739 5739 5741 5745 5748 5753 5755 5755 5753 5753 5746 5746
5688 5689 5687 5685 5683 5682 5680 5678 5677 5677 5678 5678 5680 5683 5685 5689 5695 5697 5699 5699 5702 5707 5711 5715 5719 5721 5721 5722 5725 5727 5729 5732 5731 5730 5733 5739 5745 5750 5752 5752 5753 5751 5749
5672 5672 5670 5668 5666 5665 5662 5661 5661 5661 5661 5663 5665 5669 5674 5677 5679 5682 5685 5686 5689 5691 5698 5704 5707 5707 5710 5713 5717 5721 5721 5719 5717 5718 5721 5727 5732 5737 5744 5745 5749 5754 5758
5655 5653 5651 5650 5649 5647 5645 5645 5645 5646 5646 5647 5649 5653 5658 5664 5665 5667 5668 5669 5670 5674 5681 5686 5689 5693 5697 5701 5704 5707 5707 5707 5705 5703 5710 5718 5724 5727 5733 5739 5745 5748 5752
5638 5635 5634 5633 5633 5630 5627 5626 5629 5631 5634 5635 5635 5637 5642 5647 5650 5648 5646 5648 5652 5659 5666 5673 5677 5681 5684 5690 5693 5696 5697 5697 5696 5696 5701 5711 5715 5717 5723 5731 5734 5738 5740
5623 5620 5618 5617 5616 5615 5614 5613 5614 5615 5616 5620 5625 5628 5629 5633 5636 5633 5630 5629 5635 5643 5650 5659 5664 5668 5672 5677 5682 5688 5690 5689 5689 5690 5691 5697 5703 5708 5717 5723 5728 5728 5731
5611 5609 5606 5604 5604 5603 5604 5607 5605 5605 5606 5607 5609 5612 5621 5623 5625 5623 5620 5620 5623 5628 5637 5645 5652 5657 5660 5666 5671 5677 5681 5684 5683 5683 5684 5688 5695 5699 5707 5712 5720 5723 5726
5598 5597 5595 5593 5593 5593 5593 5594 5599 5604 5599 5601 5601 5604 5608 5613 5616 5616 5616 5615 5617 5620 5625 5634 5645 5650 5654 5659 5663 5668 5674 5678 5679 5678 5678 5682 5688 5694 5698 5705 5710 5714 5720
5586 5584 5583 5584 5583 5582 5582 5583 5584 5587 5596 5597 5595 5596 5600 5603 5606 5608 5611 5611 5619 5615 5625 5634 5639 5644 5649 5653 5657 5664 5669 5673 5673 5674 5675 5678 5682 5687 5692 5699 5704 5707 5712
5576 5574 5573 5572 5570 5570 5570 5572 5572 5573 5576 5580 5585 5585 5586 5591 5595 5600 5604 5605 5614 5621 5627 5633 5636 5638 5643 5648 5652 5658 5664 5668 5672 5672 5674 5676 5681 5683 5688 5696 5700 5703 5707
5566 5564 5562 5559 5558 5558 5557 5554 5556 5555 5557 5559 5563 5567 5572 5577 5585 5590 5596 5602 5607 5614 5619 5625 5630 5634 5637 5642 5646 5650 5655 5661 5666 5669 5673 5677 5680 5681 5687 5691 5695 5699 5704
5553 5549 5548 5544 5543 5539 5537 5536 5536 5539 5541 5543 5546 5549 5552 5561 5571 5577 5583 5591 5598 5606 5613 5620 5626 5630 5633 5638 5642 5645 5651 5656 5662 5666 5671 5678 5681 5681 5685 5688 5692 5697 5703
5539 5535 5531 5528 5525 5522 5519 5518 5519 5521 5525 5529 5532 5536 5541 5549 5557 5566 5575 5584 5596 5602 5609 5615 5620 5624 5629 5632 5639 5644 5648 5653 5659 5665 5670 5674 5679 5683 5684 5684 5687 5693 5698
5529 5525 5521 5516 5512 5509 5507 5506 5507 5508 5512 5515 5518 5525 5533 5541 5550 5559 5569 5579 5587 5593 5600 5609 5617 5622 5626 5631 5638 5642 5645 5652 5659 5665 5670 5674 5677 5682 5683 5683 5683 5686 5689
5523 5517 5513 5510 5508 5505 5500 5500 5501 5501 5505 5509 5514 5522 5530 5537 5545 5553 5562 5571 5577 5583 5591 5600 5609 5615 5622 5628 5636 5642 5647 5653 5660 5666 5672 5675 5678 5681 5682 5681 5684 5683 5685
5516 5512 5508 5508 5507 5504 5502 5502 5502 5504 5508 5513 5519 5525 5531 5536 5541 5548 5556 5562 5569 5577 5583 5591 5598 5609 5619 5625 5632 5639 5644 5648 5657 5662 5669 5672 5677 5679 5680 5681 5684 5686 5687
5511 5508 5504 5504 5505 5505 5504 5505 5506 5507 5511 5514 5519 5524 5530 5535 5540 5545 5551 5557 5565 5572 5579 5585 5595 5605 5614 5624 5633 5638 5641 5645 5648 5656 5666 5670 5673 5677 5680 5681 5680 5682 5684